This is the latest recevied weather packets stored in our database for station/object LU5DTF-1. If no packets are shown the sender has not sent any weather packets the latest 10 day(s).
| Time | Temp. | Humidity | Pressure | Rain* | Wind** | Luminosity | Snow |
|---|---|---|---|---|---|---|---|
| 1778359497 | 8.89° C | 78% | 1013.1 hPa | 0.51 mm | - | - | - |
| 1778359200 | 8.89° C | 78% | 1013.3 hPa | 0.51 mm | - | - | - |
| 1778358897 | 8.89° C | 77% | 1013 hPa | 0.25 mm | - | - | - |
| 1778358597 | 8.89° C | 78% | 1013.1 hPa | 0.25 mm | - | - | - |
| 1778358297 | 8.89° C | 79% | 1013.1 hPa | 0.25 mm | - | - | - |
| 1778357997 | 8.89° C | 78% | 1013.1 hPa | 0.25 mm | - | - | - |
| 1778357697 | 8.89° C | 77% | 1013.2 hPa | 0.25 mm | - | - | - |
| 1778357397 | 9.44° C | 76% | 1013.1 hPa | 0 mm | - | - | - |
| 1778357097 | 9.44° C | 75% | 1013 hPa | 0 mm | - | - | - |
| 1778356797 | 9.44° C | 73% | 1012.8 hPa | 0 mm | - | - | - |
| 1778356497 | 9.44° C | 73% | 1012.8 hPa | 0 mm | - | - | - |
| 1778356197 | 9.44° C | 73% | 1012.8 hPa | 0 mm | - | - | - |
| 1778355897 | 9.44° C | 73% | 1012.8 hPa | 0 mm | - | - | - |
| 1778355597 | 9.44° C | 73% | 1012.8 hPa | 0 mm | - | - | - |
| 1778355297 | 9.44° C | 74% | 1012.7 hPa | 0 mm | - | - | - |
| 1778354997 | 9.44° C | 75% | 1012.7 hPa | 0 mm | - | - | - |
| 1778354697 | 9.44° C | 75% | 1012.7 hPa | 0 mm | - | - | - |
| 1778354397 | 8.89° C | 74% | 1012.6 hPa | 0 mm | - | - | - |
| 1778354097 | 9.44° C | 73% | 1012.5 hPa | 0 mm | - | - | - |
| 1778353797 | 9.44° C | 70% | 1012.6 hPa | 0 mm | - | - | - |
| 1778353497 | 9.44° C | 68% | 1012.7 hPa | 0 mm | - | - | - |
| 1778353197 | 10° C | 66% | 1012.3 hPa | 0 mm | - | - | - |
| 1778352897 | 10.56° C | 62% | 1012.2 hPa | 0 mm | - | - | - |
| 1778352597 | 10.56° C | 62% | 1012.3 hPa | 0 mm | - | - | - |
| 1778352297 | 10.56° C | 61% | 1012.2 hPa | 0 mm | - | - | - |
* Rain latest hour (hover to see other rain measurements)
** Current wind speed in m/s (hover to see current wind gust speed)